De Queen, AR

4:56 AM CDT on April 23, 2018 (GMT -0500)
Helms Sevier County

Weather History for KDEQ - March, 2014

Change the Weather History Date:

Wednesday, March 26, 2014

  Actual Average Record
Temperature  
Mean Temperature 44 °F 56 °F  
Max Temperature 58 °F 69 °F 83 °F (1956)
Min Temperature 30 °F 43 °F 19 °F (1955)
Degree Days  
Heating Degree Days 21 10  
Month to date heating degree days 427 330  
Since 1 July heating degree days 3199 2821  
Cooling Degree Days 0 0  
Month to date cooling degree days 0 0  
Year to date cooling degree days 0 2  
Moisture  
Dew Point 33 °F    
Average Humidity 64    
Maximum Humidity 92    
Minimum Humidity 36    
Precipitation  
Precipitation 0.01 in 0.18 in 2.08 in (1967)
Month to date precipitation 3.03 3.69  
Year to date precipitation 4.97 10.69  
Snow  
Snow 0.00 in - - ()
Month to date snowfall T  
Since 1 July snowfall 1.2  
Snow Depth 0.00 in    
Sea Level Pressure  
Sea Level Pressure 30.17 in    
Wind  
Wind Speed 6 mph (ESE)    
Max Wind Speed 17 mph    
Max Gust Speed 22 mph    
Visibility 8 miles    
Events Rain    
T = Trace of Precipitation, MM = Missing Value Source: NWS Daily Summary

Daily Weather History Graph

Daily Weather History Graph

Search for Another Location

Airport or City:

Astronomy

Mar. 26, 2014 Rise Set
Actual Time 7:13 AM CDT 7:33 PM CDT
Civil Twilight 6:48 AM CDT 7:58 PM CDT
Nautical Twilight 6:18 AM CDT 8:28 PM CDT
Astronomical Twilight 5:48 AM CDT 8:58 PM CDT
Moon 4:10 AM CDT (3/26) 3:23 PM CDT (3/26)
Length of Visible Light 13h 10m
Length of Day
12h 20m
Waning Crescent, 21% of the Moon is Illuminated
Mar 26
Waning Crescent
Mar 30
New
Apr 7
First Quarter
Apr 15
Full
Apr 22
Last Quarter

Hourly Weather History & Observations

Time (CDT) Temp. Windchill Dew Point Humidity Pressure Visibility Wind Dir Wind Speed Gust Speed Precip Events Conditions
12:53 AM 36.0 °F 33.3 °F 33.1 °F 89% 30.25 in 8.0 mi ENE 3.5 mph - N/A   Clear
1:53 AM 35.1 °F - 32.0 °F 89% 30.25 in 8.0 mi Calm Calm - N/A   Clear
2:53 AM 32.0 °F - 30.0 °F 92% 30.24 in 7.0 mi Calm Calm - N/A   Clear
3:53 AM 33.1 °F - 30.9 °F 92% 30.23 in 8.0 mi Calm Calm - N/A   Clear
4:27 AM 32.0 °F - 30.9 °F 96% 30.23 in 1.8 mi Calm Calm - N/A   Clear
4:36 AM 30.9 °F - 30.0 °F 96% 30.23 in 0.8 mi Calm Calm - N/A   Clear
4:40 AM 30.9 °F - 30.0 °F 96% 30.24 in 2.5 mi Calm Calm - N/A   Clear
4:53 AM 30.9 °F - 28.9 °F 92% 30.24 in 6.0 mi Calm Calm - N/A   Clear
5:53 AM 37.0 °F 32.4 °F 27.0 °F 67% 30.24 in 10.0 mi ENE 5.8 mph - N/A   Clear
6:53 AM 36.0 °F 30.3 °F 25.0 °F 64% 30.26 in 9.0 mi ENE 6.9 mph - N/A   Clear
7:53 AM 37.0 °F 31.6 °F 26.1 °F 65% 30.29 in 9.0 mi East 6.9 mph - N/A   Clear
8:53 AM 41.0 °F 35.2 °F 25.0 °F 53% 30.29 in 10.0 mi East 9.2 mph - N/A   Clear
9:53 AM 46.0 °F 41.9 °F 28.0 °F 50% 30.27 in 10.0 mi East 8.1 mph - N/A   Clear
10:53 AM 51.1 °F - 28.9 °F 43% 30.25 in 10.0 mi ESE 10.4 mph - N/A   Clear
11:53 AM 54.0 °F - 28.9 °F 38% 30.22 in 10.0 mi SSE 13.8 mph 20.7 mph N/A   Clear
12:53 PM 57.9 °F - 30.9 °F 36% 30.19 in 10.0 mi SSE 8.1 mph 16.1 mph N/A   Overcast
1:53 PM 57.9 °F - 32.0 °F 37% 30.16 in 10.0 mi SE 9.2 mph - N/A   Overcast
2:53 PM 57.9 °F - 32.0 °F 37% 30.11 in 10.0 mi SSE 5.8 mph - N/A   Overcast
3:53 PM 55.0 °F - 37.9 °F 53% 30.10 in 5.0 mi South 4.6 mph - 0.00 in Rain Light Rain
4:53 PM 55.9 °F - 39.9 °F 55% 30.08 in 10.0 mi SSE 4.6 mph - 0.00 in   Mostly Cloudy
5:53 PM 55.9 °F - 39.0 °F 53% 30.02 in 10.0 mi SE 5.8 mph - N/A   Overcast
6:53 PM 53.1 °F - 42.1 °F 66% 30.04 in 6.0 mi Calm Calm - 0.00 in Rain Light Rain
7:53 PM 48.9 °F - 46.9 °F 93% 30.02 in 8.0 mi ESE 4.6 mph - 0.01 in Rain Light Rain
8:53 PM 52.0 °F - 43.0 °F 71% 30.01 in 10.0 mi ESE 5.8 mph - 0.00 in   Overcast
9:53 PM 53.1 °F - 41.0 °F 64% 30.01 in 10.0 mi ESE 5.8 mph - N/A   Overcast
10:53 PM 54.0 °F - 37.0 °F 53% 30.00 in 10.0 mi Variable 4.6 mph - N/A   Overcast
11:53 PM 54.0 °F - 37.0 °F 53% 29.99 in 10.0 mi SSE 6.9 mph - N/A   Overcast